Lima, OH

5:20 PM EST on January 23, 2018 (GMT -0500)
Lima Allen County

Weather History for KAOH - October, 2012

Change the Weather History Date:

Tuesday, October 16, 2012

  Actual Average (KFDY) Record (KFDY)
Temperature  
Mean Temperature 48 °F -  
Max Temperature 62 °F 61 °F 84 °F (1956)
Min Temperature 35 °F 42 °F 26 °F (1991)
Degree Days  
Heating Degree Days 16    
Moisture  
Dew Point 37 °F    
Average Humidity 65    
Maximum Humidity 93    
Minimum Humidity 41    
Precipitation  
Precipitation 0.00 in - - ()
Sea Level Pressure  
Sea Level Pressure 29.91 in    
Wind  
Wind Speed 5 mph (South)    
Max Wind Speed 10 mph    
Max Gust Speed -    
Visibility 9 miles    
Events      
Averages and records for this station are not official NWS values.
T = Trace of Precipitation, MM = Missing Value Source: NWS Daily Summary

Daily Weather History Graph

Daily Weather History Graph

Search for Another Location

Airport or City:

Trip Planner

Search our weather history database for the weather conditions in past years. The results will help you decide how hot, cold, wet, or windy it might be!

Date:

Astronomy

Oct. 16, 2012 Rise Set
Actual Time 7:48 AM EDT 6:53 PM EDT
Civil Twilight 7:21 AM EDT 7:21 PM EDT
Nautical Twilight 6:49 AM EDT 7:52 PM EDT
Astronomical Twilight 6:17 AM EDT 8:24 PM EDT
Moon 9:11 AM EDT (10/16) 7:36 PM EDT (10/16)
Length of Visible Light 11h 59m
Length of Day
11h 04m
New Moon, 2% of the Moon is Illuminated
Oct 16
New Moon
Oct 21
First Quarter
Oct 29
Full
Nov 6
Last Quarter
Nov 13
New

Hourly Weather History & Observations

Time (EDT) Temp. Windchill Dew Point Humidity Pressure Visibility Wind Dir Wind Speed Gust Speed Precip Events Conditions
12:53 AM 43.0 °F 40.3 °F 37.0 °F 80% 29.97 in 10.0 mi NW 4.6 mph - N/A   Clear
1:53 AM 42.1 °F 40.2 °F 37.0 °F 82% 29.98 in 10.0 mi NNW 3.5 mph - N/A   Clear
2:53 AM 39.9 °F - 36.0 °F 86% 29.98 in 10.0 mi Calm Calm - N/A   Clear
3:53 AM 39.0 °F - 34.0 °F 82% 29.97 in 10.0 mi Calm Calm - N/A   Clear
4:53 AM 37.0 °F - 33.1 °F 86% 29.98 in 10.0 mi Calm Calm - N/A   Clear
5:53 AM 36.0 °F - 32.0 °F 86% 29.99 in 9.0 mi Calm Calm - N/A   Clear
6:53 AM 35.1 °F - 33.1 °F 92% 30.01 in 5.0 mi Calm Calm - N/A   Clear
8:53 AM 39.0 °F 35.7 °F 37.0 °F 93% 30.01 in 3.0 mi SSE 4.6 mph - N/A   Clear
9:53 AM 45.0 °F 43.5 °F 39.9 °F 82% 30.00 in 10.0 mi South 3.5 mph - N/A   Clear
10:53 AM 48.9 °F - 39.0 °F 69% 30.00 in 10.0 mi SW 6.9 mph - N/A   Clear
11:53 AM 53.1 °F - 37.9 °F 57% 29.99 in 10.0 mi South 4.6 mph - N/A   Clear
12:53 PM 55.9 °F - 37.0 °F 49% 29.96 in 10.0 mi Variable 4.6 mph - N/A   Clear
1:53 PM 59.0 °F - 37.9 °F 46% 29.92 in 10.0 mi South 9.2 mph - N/A   Clear
2:53 PM 61.0 °F - 39.0 °F 44% 29.90 in 10.0 mi SW 8.1 mph - N/A   Clear
3:53 PM 61.0 °F - 37.9 °F 42% 29.88 in 10.0 mi South 8.1 mph - N/A   Clear
4:53 PM 62.1 °F - 37.9 °F 41% 29.86 in 10.0 mi South 9.2 mph - N/A   Clear
5:53 PM 60.1 °F - 37.9 °F 44% 29.83 in 10.0 mi South 9.2 mph - N/A   Clear
6:53 PM 55.9 °F - 39.0 °F 53% 29.81 in 10.0 mi South 6.9 mph - N/A   Clear
7:53 PM 54.0 °F - 39.0 °F 57% 29.80 in 10.0 mi South 8.1 mph - N/A   Clear
8:53 PM 54.0 °F - 39.0 °F 57% 29.79 in 10.0 mi South 8.1 mph - N/A   Clear
9:53 PM 54.0 °F - 39.0 °F 57% 29.79 in 10.0 mi SSE 10.4 mph - N/A   Clear
10:53 PM 54.0 °F - 39.9 °F 59% 29.79 in 10.0 mi South 10.4 mph - N/A   Mostly Cloudy
11:53 PM 55.0 °F - 39.9 °F 57% 29.79 in 10.0 mi South 10.4 mph - N/A   Overcast